Coffman Cove, AK

8:29 PM AKDT on August 25, 2016 (GMT -0800)
Ketchikan International

Weather History for PAKT - February, 2013

Change the Weather History Date:

Wednesday, February 27, 2013

  Actual Average Record
Temperature  
Mean Temperature 38 °F -  
Max Temperature 41 °F 45 °F 62 °F (1992)
Min Temperature 35 °F 31 °F 10 °F (1972)
Degree Days  
Heating Degree Days 27    
Moisture  
Dew Point 38 °F    
Average Humidity 98    
Maximum Humidity 100    
Minimum Humidity 93    
Precipitation  
Precipitation 1.02 in - - ()
Sea Level Pressure  
Sea Level Pressure 29.80 in    
Wind  
Wind Speed 15 mph (SE)    
Max Wind Speed 29 mph    
Max Gust Speed 39 mph    
Visibility 8 miles    
Events Rain    
Averages and records for this station are not official NWS values.
T = Trace of Precipitation, MM = Missing Value Source: NWS Daily Summary

Daily Weather History Graph

Daily Weather History Graph

Search for Another Location

Airport or City:

Trip Planner

Search our weather history database for the weather conditions in past years. The results will help you decide how hot, cold, wet, or windy it might be!

Date:

Astronomy

Feb. 27, 2013 Rise Set
Actual Time 6:41 AM AKST 5:18 PM AKST
Civil Twilight 6:04 AM AKST 5:55 PM AKST
Nautical Twilight 5:22 AM AKST 6:38 PM AKST
Astronomical Twilight 4:39 AM AKST 7:20 PM AKST
Moon 8:23 PM AKST (2/27) 6:51 AM AKST (2/27)
Length of Visible Light 11h 51m
Length of Day
10h 37m
Waning Gibbous, 95% of the Moon is Illuminated
Feb 27
Waning Gibbous
Mar 4
Last Quarter
Mar 11
New
Mar 19
First Quarter
Mar 27
Full

Hourly Weather History & Observations

Time (AKST) Temp. Windchill Dew Point Humidity Pressure Visibility Wind Dir Wind Speed Gust Speed Precip Events Conditions
12:53 AM 37.9 °F 29.2 °F 37.9 °F 100% 29.83 in 7.0 mi SE 15.0 mph 21.9 mph 0.06 in Rain Rain
1:20 AM 37.4 °F 30.3 °F 37.4 °F 100% 29.83 in 5.0 mi SSE 10.4 mph - 0.05 in Rain Rain
1:53 AM 39.0 °F 31.4 °F 37.9 °F 96% 29.84 in 9.0 mi SE 12.7 mph 23.0 mph 0.14 in Rain Light Rain
3:13 AM 37.4 °F 30.8 °F 37.4 °F 100% 29.83 in 10.0 mi SSE 9.2 mph - 0.01 in Rain Light Rain
3:31 AM 37.4 °F 28.9 °F 37.4 °F 100% 29.83 in 6.0 mi SE 13.8 mph - 0.03 in Rain Rain
3:53 AM 37.9 °F 31.5 °F 37.9 °F 100% 29.83 in 7.0 mi SSE 9.2 mph - 0.05 in Rain Light Rain
4:53 AM 37.9 °F 28.5 °F 37.0 °F 97% 29.82 in 10.0 mi SE 17.3 mph 28.8 mph 0.03 in   Overcast
5:16 AM 37.4 °F 27.2 °F 37.4 °F 100% 29.81 in 10.0 mi SE 19.6 mph 23.0 mph N/A   Overcast
5:53 AM 37.9 °F 30.0 °F 37.9 °F 100% 29.81 in 10.0 mi SSE 12.7 mph - 0.01 in Rain Light Rain
6:08 AM 37.4 °F 27.2 °F 37.4 °F 100% 29.80 in 10.0 mi SE 19.6 mph 32.2 mph 0.00 in Rain Light Rain
6:53 AM 37.0 °F 25.9 °F 37.0 °F 100% 29.80 in 7.0 mi SE 23.0 mph - 0.02 in Rain Light Rain
7:53 AM 37.4 °F 25.2 °F 37.4 °F 100% 29.77 in 9.0 mi SE 28.8 mph 35.7 mph N/A Rain Light Rain
8:53 AM 37.9 °F 25.9 °F 37.9 °F 100% 29.75 in 10.0 mi SE 28.8 mph 33.4 mph 0.02 in Rain Light Rain
9:53 AM 37.0 °F 24.9 °F 37.0 °F 100% 29.73 in 5.0 mi SE 27.6 mph 39.1 mph 0.04 in Rain Light Rain
10:53 AM 36.0 °F 23.7 °F 36.0 °F 100% 29.71 in 4.0 mi SE 26.5 mph 35.7 mph 0.07 in Rain Light Rain
11:53 AM 35.1 °F 22.2 °F 35.1 °F 100% 29.70 in 3.0 mi SE 27.6 mph 38.0 mph 0.15 in Rain Light Rain
12:53 PM 36.0 °F 24.2 °F 36.0 °F 100% 29.70 in 5.0 mi SE 24.2 mph 33.4 mph 0.09 in Rain Light Rain
1:53 PM 37.9 °F 29.6 °F 37.9 °F 100% 29.72 in 7.0 mi SE 13.8 mph 21.9 mph 0.10 in Rain Light Rain
2:10 PM 35.6 °F 25.5 °F 35.6 °F 100% 29.71 in 5.0 mi SE 17.3 mph 23.0 mph 0.08 in Rain Ice Pellets
2:32 PM 37.4 °F 29.8 °F 37.4 °F 100% 29.71 in 6.0 mi SE 11.5 mph - 0.10 in Rain Light Rain
2:53 PM 41.0 °F 34.7 °F 39.9 °F 96% 29.72 in 10.0 mi SE 10.4 mph 19.6 mph 0.11 in Rain Light Rain
3:53 PM 39.0 °F 33.4 °F 37.0 °F 93% 29.76 in 6.0 mi SSE 8.1 mph 16.1 mph 0.06 in Rain Rain
4:23 PM 39.2 °F 31.6 °F 37.4 °F 93% 29.77 in 10.0 mi SE 12.7 mph - 0.02 in   Mostly Cloudy
4:53 PM 39.9 °F 34.5 °F 39.0 °F 97% 29.77 in 10.0 mi SSE 8.1 mph 18.4 mph 0.02 in Rain Light Rain
5:53 PM 39.9 °F 33.4 °F 37.9 °F 93% 29.80 in 10.0 mi ESE 10.4 mph - 0.00 in Rain Light Rain
6:53 PM 39.0 °F 35.7 °F 37.9 °F 96% 29.84 in 8.0 mi South 4.6 mph - 0.03 in Rain Light Rain
7:53 PM 39.0 °F 34.0 °F 39.0 °F 100% 29.86 in 10.0 mi SSE 6.9 mph - 0.02 in   Overcast
8:53 PM 39.9 °F 34.5 °F 37.9 °F 93% 29.88 in 10.0 mi SE 8.1 mph - N/A   Mostly Cloudy
9:53 PM 39.0 °F 32.8 °F 39.0 °F 100% 29.91 in 10.0 mi SE 9.2 mph - N/A   Mostly Cloudy
10:53 PM 39.9 °F 32.1 °F 39.0 °F 97% 29.92 in 10.0 mi SE 13.8 mph 20.7 mph 0.00 in   Mostly Cloudy
11:20 PM 41.0 °F 33.9 °F 39.2 °F 93% 29.92 in 10.0 mi SE 12.7 mph - 0.00 in Rain Light Rain
11:53 PM 41.0 °F 35.2 °F 39.9 °F 96% 29.92 in 10.0 mi SSE 9.2 mph - 0.00 in   Overcast